This demonstration page uses our WeatherBlox Daily Observations layout. Learn more.

Left ArrowRight Arrow

38.89511, -77.03637

Hourly Observations for January 17, 2019

Temp ( °F °C ) Dew Point ( °F °C ) Humidity (%) Winds ( mph kmh ) Pressure ( in mb ) Visibility ( mi km ) Precip ( " mm )
12:52 am 00:52 Cloudy 39 3.9 22 -5.6 50 50 NW 7 11 30.31 1027 10 16 0.00 0.00
1:52 am 01:52 Cloudy 39 3.9 23 -5 53 53 WNW 6 9 30.32 1027 10 16 0.00 0.00
2:52 am 02:52 Cloudy 39 3.9 23 -5 53 53 W 5 7 30.33 1027 10 16 0.00 0.00
3:52 am 03:52 Cloudy 39 3.9 23 -5 53 53 WNW 7 11 30.33 1027 10 16 0.00 0.00
4:52 am 04:52 Cloudy 38 3.3 23 -5 55 55 NW 7 11 30.32 1027 10 16 0.00 0.00
5:52 am 05:52 Mostly Cloudy 35 1.7 23 -5 61 61 NNW 5 7 30.33 1027 10 16 0.00 0.00
6:52 am 06:52 Mostly Cloudy 35 1.7 23 -5 61 61 NNW 5 7 30.35 1028 10 16 0.00 0.00
7:52 am 07:52 Cloudy 35 1.7 26 -3.3 70 70 SE 3 6 30.35 1028 10 16 0.00 0.00
8:52 am 08:52 Cloudy 37 2.8 25 -3.9 62 62 E 9 15 30.36 1028 10 16 0.00 0.00
9:52 am 09:52 Cloudy 36 2.2 22 -5.6 57 57 E 10 17 30.38 1029 10 16 0.00 0.00
10:52 am 10:52 Cloudy 37 2.8 23 -5 57 57 E 7 11 30.39 1029 10 16 0.00 0.00
11:52 am 11:52 Cloudy 37 2.8 21 -6.1 52 52 E 8 13 30.36 1028 10 16 0.00 0.00
12:52 pm 12:52 Cloudy 37 2.8 22 -5.6 54 54 E 9 15 30.32 1027 10 16 0.00 0.00
1:52 pm 13:52 Cloudy 37 2.8 23 -5 57 57 ESE 10 17 30.29 1026 10 16 0.00 0.00
2:52 pm 14:52 Cloudy 37 2.8 23 -5 57 57 ESE 7 11 30.28 1025 10 16 0.00 0.00
3:52 pm 15:52 Cloudy 38 3.3 24 -4.4 57 57 ESE 6 9 30.27 1025 10 16 0.00 0.00
4:52 pm 16:52 Cloudy 38 3.3 25 -3.9 60 60 ESE 6 9 30.25 1025 10 16 0.00 0.00
5:52 pm 17:52 Cloudy 37 2.8 25 -3.9 62 62 ESE 7 11 30.25 1024 10 16 0.00 0.00
6:19 pm 18:19 Cloudy with Light Snow 37 2.8 26 -3.3 65 65 SE 7 11 30.24 1024 10 16 0.00 0.03
6:33 pm 18:33 Cloudy with Light Snow 36 2.2 27 -2.8 70 70 SE 3 6 30.24 1024 5 8 0.00 0.03
6:42 pm 18:42 Cloudy with Light Snow 35 1.7 28 -2.2 76 76 ESE 5 7 30.27 1025 3 4 0.00 0.03
6:47 pm 18:47 Cloudy with Light Snow 36 2 28 -2 75 75 E 5 7 30.27 1025 2 3 0.00 0.03
6:52 pm 18:52 Cloudy with Light Snow 35 1.7 29 -1.7 78 78 E 3 6 30.25 1024 2 3 0.00 0.03
7:49 pm 19:49 Cloudy with Light Snow 34 1 30 -1 87 87 E 3 6 30.24 1024 1 2 0.03 0.76
7:52 pm 19:52 Cloudy with Light Snow 34 1.1 31 -0.6 89 89 E 3 6 30.24 1024 1 2 0.03 0.76
7:55 pm 19:55 Cloudy with Light Snow 34 1.1 31 -0.6 89 89 E 3 6 30.24 1024 1 2 0.00 0.03
8:34 pm 20:34 Cloudy with Light Snow 34 1.1 31 -0.6 89 89 ENE 3 6 30.21 1023 2 3 0.02 0.51
8:52 pm 20:52 Cloudy with Light Snow 34 1.1 31 -0.6 89 89 NE 5 7 30.22 1023 3 5 0.02 0.51
9:22 pm 21:22 Cloudy with Mist and Fog 34 1.1 31 -0.6 89 89 ENE 5 7 30.21 1023 5 8 0.00 0.03
9:44 pm 21:44 Cloudy with Drizzle 34 1.1 31 -0.6 89 89 ENE 5 7 30.21 1023 6 10 0.00 0.03
9:47 pm 21:47 Cloudy with Light Snow 34 1 30 -1 87 87 NE 6 9 30.21 1023 6 10 0.00 0.03
9:52 pm 21:52 Cloudy with Light Snow 34 1.1 31 -0.6 89 89 NE 6 9 30.21 1023 6 10 0.00 0.03
10:27 pm 22:27 Cloudy with Light Snow 34 1.1 31 -0.6 89 89 ENE 6 9 30.21 1023 3 4 0.00 0.03
10:52 pm 22:52 Cloudy with Light Snow 34 1.1 31 -0.6 89 89 NE 7 11 30.20 1023 3 4 0.01 0.25
11:00 pm 23:00 Cloudy with Light Snow 34 1.1 31 -0.6 89 89 ENE 7 11 30.21 1023 2 3 0.00 0.03
11:12 pm 23:12 Cloudy with Light Snow 34 1.1 31 -0.6 89 89 NE 6 9 30.21 1023 3 5 0.01 0.25
11:30 pm 23:30 Cloudy with Light Snow 34 1.1 31 -0.6 89 89 ENE 6 9 30.18 1022 3 4 0.01 0.25
11:37 pm 23:37 Cloudy with Light Snow 34 1.1 31 -0.6 89 89 ENE 5 7 30.18 1022 2 3 0.01 0.25
11:52 pm 23:52 Cloudy with Light Snow 34 1.1 31 -0.6 89 89 NE 3 6 30.18 1022 1 2 0.02 0.51

Powered by AerisWeather